Sigfox identifier Datetime Temperature Humidity SNR
003C3CC8 2019-02-20 13:59:55 21.9 18 23.9
003C3CC8 2019-02-20 13:28:40 21.9 19 23.9
003C3CC8 2019-02-20 12:57:24 21.9 20 23.8
003C3CC8 2019-02-20 12:26:09 21.9 21 23.9
003C3CC8 2019-02-20 11:54:53 21.9 23 23.9
003C3CC8 2019-02-20 11:23:38 22 24 24
003C3CC8 2019-02-20 10:52:21 22 26 24
003C3CC8 2019-02-20 10:21:06 22 28 24
003C3CC8 2019-02-20 09:49:51 22.1 30 24
003C3CC8 2019-02-20 09:18:35 22.1 30 24.1
003C3CC8 2019-02-20 08:47:19 22 26 24.1
003C3CC8 2019-02-20 08:16:03 22 26 24.1
003C3CC8 2019-02-20 07:44:47 22 27 24.1
003C3CC8 2019-02-20 07:13:30 22.1 27 24.2
003C3CC8 2019-02-20 06:42:14 22.1 27 24.1
003C3CC8 2019-02-20 06:10:59 22.1 27 24
003C3CC8 2019-02-20 05:39:43 22.1 28 23.8
003C3CC8 2019-02-20 05:08:27 22.4 27 23.9
003C3CC8 2019-02-20 05:07:14 22.1 28 24
003C3CC8 2019-02-20 04:35:58 22.2 28 23.9
003C3CC8 2019-02-20 04:04:42 22.2 28 23.8
003C3CC8 2019-02-20 03:33:25 22.2 27 23.8
003C3CC8 2019-02-20 03:02:10 22.3 27 23.7
003C3CC8 2019-02-20 02:30:54 22.3 27 23.7
003C3CC8 2019-02-20 01:59:38 22.3 27 23.7
003C3CC8 2019-02-20 01:28:23 22.4 28 23.8
003C3CC8 2019-02-20 00:57:07 22.4 28 23.7
003C3CC8 2019-02-20 00:25:52 22.4 28 24
003C3CC8 2019-02-19 23:54:35 22.4 28 23.8
003C3CC8 2019-02-19 23:23:20 22.4 28 23.8
003C3CC8 2019-02-19 22:52:05 22.3 28 23.6
003C3CC8 2019-02-19 22:20:49 22.3 28 23.6
003C3CC8 2019-02-19 21:49:33 22.3 28 23.7
003C3CC8 2019-02-19 21:18:18 22.2 27 23.7
003C3CC8 2019-02-19 20:47:02 22.2 27 23.7
003C3CC8 2019-02-19 20:15:46 22.2 27 23.7
003C3CC8 2019-02-19 19:44:31 22.2 27 23.8
003C3CC8 2019-02-19 19:13:14 22.1 27 23.9
003C3CC8 2019-02-19 18:41:59 22.1 27 23.9
003C3CC8 2019-02-19 18:10:43 22.1 26 24
003C3CC8 2019-02-19 17:39:27 22.1 26 24.1
003C3CC8 2019-02-19 17:08:14 22.1 26 24.2
003C3CC8 2019-02-19 16:36:59 22.1 26 24.3
003C3CC8 2019-02-19 16:05:43 22.1 26 24.3
003C3CC8 2019-02-19 15:34:29 22.1 26 24.4
003C3CC8 2019-02-19 15:03:13 22.1 26 24.3
003C3CC8 2019-02-19 14:31:59 22.1 26 24.3
003C3CC8 2019-02-19 14:00:44 22.2 26 24.4
003C3CC8 2019-02-19 13:29:29 22.2 26 24.3
003C3CC8 2019-02-19 12:58:12 22.2 26 24.3
003C3CC8 2019-02-19 12:26:57 22.2 26 24.2
003C3CC8 2019-02-19 11:55:41 22.2 27 24.2
003C3CC8 2019-02-19 11:24:26 22.3 28 24.1
003C3CC8 2019-02-19 10:53:09 22.3 27 24.1
003C3CC8 2019-02-19 10:21:53 22.3 27 24.1
003C3CC8 2019-02-19 09:50:38 22.5 28 24.2
003C3CC8 2019-02-19 09:19:23 23 29 24.2
003C3CC8 2019-02-19 08:48:07 23.2 24 24.1
003C3CC8 2019-02-19 08:16:52 23.2 24 24.1
003C3CC8 2019-02-19 07:45:36 23.2 24 24
003C3CC8 2019-02-19 07:14:21 23.2 24 24
003C3CC8 2019-02-19 06:43:05 23.2 24 23.8
003C3CC8 2019-02-19 06:11:49 23.2 24 23.7
003C3CC8 2019-02-19 05:40:34 23.2 24 23.6
003C3CC8 2019-02-19 05:09:19 23.3 24 23.5
003C3CC8 2019-02-19 04:38:04 23.3 24 23.4
003C3CC8 2019-02-19 04:06:49 23.3 24 23.2
003C3CC8 2019-02-19 03:35:35 23.5 24 23
003C3CC8 2019-02-19 03:34:22 23.3 24 23.6
003C3CC8 2019-02-19 03:03:07 23.3 24 23.5
003C3CC8 2019-02-19 02:31:51 23.3 24 23.6
003C3CC8 2019-02-19 02:00:35 23.3 24 23.5
003C3CC8 2019-02-19 01:29:20 23.3 24 23.4
003C3CC8 2019-02-19 00:58:04 23.3 24 23.6
003C3CC8 2019-02-19 00:26:48 23.3 24 23.5
003C3CC8 2019-02-18 23:55:33 23.3 24 23.4
003C3CC8 2019-02-18 23:24:16 23.3 24 23.2
003C3CC8 2019-02-18 22:53:00 23.3 24 23.1
003C3CC8 2019-02-18 22:21:45 23.3 24 22.8
003C3CC8 2019-02-18 21:50:30 23.3 24 22.6
003C3CC8 2019-02-18 21:19:14 23.3 24 22.4
003C3CC8 2019-02-18 20:47:57 23.3 24 22.5
003C3CC8 2019-02-18 20:16:42 23.3 24 22.6
003C3CC8 2019-02-18 19:45:26 23.2 24 22.7
003C3CC8 2019-02-18 19:14:11 23.1 24 22.8
003C3CC8 2019-02-18 18:42:54 23 24 23.6
003C3CC8 2019-02-18 18:11:38 22.7 24 23.6
003C3CC8 2019-02-18 17:40:23 22.3 24 23.8
003C3CC8 2019-02-18 17:09:07 21.9 24 23.9
003C3CC8 2019-02-18 16:37:51 21.4 23 24
003C3CC8 2019-02-18 16:06:36 21 23 24.2
003C3CC8 2019-02-18 15:35:22 20.6 23 24.3
003C3CC8 2019-02-18 15:04:06 20.6 23 23.9
003C3CC8 2019-02-18 14:32:51 20.5 23 24
003C3CC8 2019-02-18 14:01:35 20.5 23 24.1
003C3CC8 2019-02-18 13:30:20 20.5 23 24.2
003C3CC8 2019-02-18 12:59:04 20.4 23 24.2
003C3CC8 2019-02-18 12:27:49 20.3 23 24.1
003C3CC8 2019-02-18 11:56:33 20.2 23 24.1
003C3CC8 2019-02-18 11:25:18 20 23 24.2
003C3CC8 2019-02-18 10:54:04 20 23 24.4
003C3CC8 2019-02-18 10:22:51 19.9 23 24.5
003C3CC8 2019-02-18 09:51:37 19.8 23 24.7
003C3CC8 2019-02-18 09:20:23 19.7 23 24.9
003C3CC8 2019-02-18 08:49:08 19.4 23 25
003C3CC8 2019-02-18 07:46:40 22.2 16 25
003C3CC8 2019-02-18 07:15:23 22.3 22 25.1
003C3CC8 2019-02-18 06:44:08 22.3 22 25.1
003C3CC8 2019-02-18 06:12:52 22.3 22 25.2
003C3CC8 2019-02-18 05:41:38 22.3 22 25.2
003C3CC8 2019-02-18 05:10:22 22.3 22 24.9
003C3CC8 2019-02-18 04:39:06 22.3 22 25.2
003C3CC8 2019-02-18 04:07:52 22.3 22 25.3
003C3CC8 2019-02-18 03:36:37 22.3 22 25.3
003C3CC8 2019-02-18 03:05:22 22.4 22 25.3
003C3CC8 2019-02-18 02:34:07 22.3 23 25.3
003C3CC8 2019-02-18 02:02:52 22.6 22 25.3
003C3CC8 2019-02-18 02:01:39 22.3 23 25.2
003C3CC8 2019-02-18 01:30:23 22.4 23 25.2
003C3CC8 2019-02-18 00:59:08 22.4 23 25.2
003C3CC8 2019-02-18 00:27:52 22.3 23 25
003C3CC8 2019-02-17 23:56:37 22.3 23 25
003C3CC8 2019-02-17 23:25:21 22.3 23 25.1
003C3CC8 2019-02-17 22:54:05 22.3 23 25.2
003C3CC8 2019-02-17 22:22:49 22.3 23 25.2
003C3CC8 2019-02-17 21:51:35 22.2 23 25.3
003C3CC8 2019-02-17 21:20:20 22.2 24 25.4
003C3CC8 2019-02-17 20:49:04 22.2 24 25.3
003C3CC8 2019-02-17 20:17:50 22.2 24 25.2
003C3CC8 2019-02-17 19:46:35 22.2 24 25.2
003C3CC8 2019-02-17 19:15:21 22.2 24 25.1
003C3CC8 2019-02-17 18:44:07 22.2 24 25
003C3CC8 2019-02-17 18:12:52 22.3 25 24.9
003C3CC8 2019-02-17 17:41:38 22.3 25 24.8
003C3CC8 2019-02-17 17:10:23 22.3 25 24.7
003C3CC8 2019-02-17 16:39:08 22.3 25 24.6
003C3CC8 2019-02-17 16:07:52 22.3 25 24.1
003C3CC8 2019-02-17 15:36:37 22.3 25 24
003C3CC8 2019-02-17 15:05:21 22.3 25 23.9
003C3CC8 2019-02-17 14:34:06 22.2 25 24.4
003C3CC8 2019-02-17 14:02:52 22.2 25 24.4
003C3CC8 2019-02-17 13:31:37 22.2 25 24.4
003C3CC8 2019-02-17 13:00:23 22.2 25 24.4
003C3CC8 2019-02-17 12:29:08 22.1 25 24.2
003C3CC8 2019-02-17 11:57:52 22.1 26 24.1
003C3CC8 2019-02-17 11:26:38 22.1 26 24.3
003C3CC8 2019-02-17 10:55:23 22.1 26 24.3
003C3CC8 2019-02-17 10:24:09 22.1 26 24.2
003C3CC8 2019-02-17 09:52:54 22.1 26 24.1
003C3CC8 2019-02-17 09:21:40 22.1 26 24.1
003C3CC8 2019-02-17 08:50:24 22.1 26 23.9
003C3CC8 2019-02-17 08:19:08 22.1 26 23.9
003C3CC8 2019-02-17 07:47:53 22.2 26 23.8
003C3CC8 2019-02-17 07:16:38 22.2 26 23.7
003C3CC8 2019-02-17 06:45:25 22.2 26 23.6
003C3CC8 2019-02-17 06:14:08 22.2 26 23.8
003C3CC8 2019-02-17 05:42:54 22.2 26 23.6
003C3CC8 2019-02-17 05:11:38 22.2 26 23.7
003C3CC8 2019-02-17 04:40:22 22.2 27 23.6
003C3CC8 2019-02-17 04:09:07 22.2 27 23.5
003C3CC8 2019-02-17 03:37:53 22.2 27 23.4
003C3CC8 2019-02-17 03:06:39 22.2 27 23.5
003C3CC8 2019-02-17 02:35:25 22.2 27 23.5
003C3CC8 2019-02-17 02:04:11 22.2 27 23.3
003C3CC8 2019-02-17 01:32:56 22.3 27 22.6
003C3CC8 2019-02-17 01:01:41 22.3 27 22.5
003C3CC8 2019-02-17 00:30:26 22.5 27 22.4
003C3CC8 2019-02-17 00:29:13 22.3 27 22.7
003C3CC8 2019-02-16 23:57:58 22.3 27 23
003C3CC8 2019-02-16 23:26:43 22.2 27 23.1
003C3CC8 2019-02-16 22:55:28 22.2 27 23.1
003C3CC8 2019-02-16 22:24:13 22.2 27 23.3
003C3CC8 2019-02-16 21:52:58 22.2 27 23.2
003C3CC8 2019-02-16 21:21:43 22.2 27 23.1
003C3CC8 2019-02-16 20:50:29 22.2 27 23.1
003C3CC8 2019-02-16 20:19:14 22.2 27 23
003C3CC8 2019-02-16 19:47:58 22.2 27 23.1
003C3CC8 2019-02-16 19:16:43 22.2 27 23.1
003C3CC8 2019-02-16 18:45:27 22.2 27 23.3
003C3CC8 2019-02-16 18:14:13 22.2 27 23.4
003C3CC8 2019-02-16 17:42:58 22.2 27 23.4
003C3CC8 2019-02-16 17:11:43 22.2 27 23.4
003C3CC8 2019-02-16 16:40:28 22.2 27 23.4
003C3CC8 2019-02-16 16:09:15 22.2 27 23.5
003C3CC8 2019-02-16 15:37:59 22.2 27 23.6
003C3CC8 2019-02-16 15:06:44 22.2 27 23.7
003C3CC8 2019-02-16 14:35:30 22.2 27 23.6
003C3CC8 2019-02-16 14:04:15 22.2 27 23.7
003C3CC8 2019-02-16 13:33:02 22.2 27 23.7
003C3CC8 2019-02-16 13:01:45 22.2 27 23.8
003C3CC8 2019-02-16 12:30:32 22.2 27 23.9
003C3CC8 2019-02-16 11:59:17 22.2 27 23.9
003C3CC8 2019-02-16 11:28:02 22.2 27 23.9
003C3CC8 2019-02-16 10:56:48 22.3 27 23.6
003C3CC8 2019-02-16 10:25:34 22.3 27 24.1
003C3CC8 2019-02-16 09:54:19 22.3 27 24
003C3CC8 2019-02-16 09:23:05 22.3 27 23.9
003C3CC8 2019-02-16 08:51:51 22.3 27 24
003C3CC8 2019-02-16 08:20:36 22.3 27 24
003C3CC8 2019-02-16 07:49:21 22.3 27 24.2
003C3CC8 2019-02-16 07:18:07 22.4 27 24.1
003C3CC8 2019-02-16 06:46:52 22.4 27 24
003C3CC8 2019-02-16 06:15:37 22.4 27 24.2
003C3CC8 2019-02-16 05:44:22 22.4 27 24
003C3CC8 2019-02-16 05:13:06 22.4 27 23.8
003C3CC8 2019-02-16 04:41:51 22.4 27 23.8
003C3CC8 2019-02-16 04:10:36 22.4 27 23.8
003C3CC8 2019-02-16 03:39:22 22.4 27 24
003C3CC8 2019-02-16 03:08:07 22.4 27 24.1
003C3CC8 2019-02-16 02:36:51 22.4 27 24.3
003C3CC8 2019-02-16 02:05:37 22.4 27 24.3
003C3CC8 2019-02-16 01:34:21 22.4 27 24.4
003C3CC8 2019-02-16 01:03:06 22.4 27 24.4
003C3CC8 2019-02-16 00:31:51 22.4 27 24.4
003C3CC8 2019-02-16 00:00:35 22.4 27 24.3
003C3CC8 2019-02-15 23:29:19 22.4 27 24.3
003C3CC8 2019-02-15 22:58:05 22.6 27 24.4
003C3CC8 2019-02-15 22:56:52 22.3 27 24.3
003C3CC8 2019-02-15 22:25:37 22.3 27 24.5
003C3CC8 2019-02-15 21:54:24 22.3 27 24
003C3CC8 2019-02-15 21:23:09 22.3 27 24
003C3CC8 2019-02-15 20:51:54 22.3 27 23.9
003C3CC8 2019-02-15 20:20:39 22.3 27 23.8
003C3CC8 2019-02-15 19:49:25 22.3 27 23.8
003C3CC8 2019-02-15 19:18:11 22.3 27 23.6
003C3CC8 2019-02-15 18:46:57 22.3 27 23.7
003C3CC8 2019-02-15 18:15:44 22.3 27 23.8
003C3CC8 2019-02-15 17:44:25 22.3 27 23.8
003C3CC8 2019-02-15 17:13:10 22.3 27 23.9
003C3CC8 2019-02-15 16:41:54 22.2 27 23.9
003C3CC8 2019-02-15 16:10:39 22.2 27 23.9
003C3CC8 2019-02-15 15:39:24 22.3 27 23.9
003C3CC8 2019-02-15 15:08:09 22.3 27 23.8
003C3CC8 2019-02-15 14:36:54 22.2 27 23.6
003C3CC8 2019-02-15 14:05:38 22.2 27 23.6
003C3CC8 2019-02-15 13:34:23 22.2 27 23.4
003C3CC8 2019-02-15 13:03:08 22.2 27 23.4
003C3CC8 2019-02-15 12:31:53 22.2 27 23.3
003C3CC8 2019-02-15 12:00:37 22.2 28 23.4
003C3CC8 2019-02-15 11:29:20 22.1 28 23.4
003C3CC8 2019-02-15 10:58:04 22.1 28 23.5
003C3CC8 2019-02-15 10:26:48 22.2 28 23.5
003C3CC8 2019-02-15 09:55:33 22.2 28 23.5
003C3CC8 2019-02-15 09:24:17 22.2 28 23.5
003C3CC8 2019-02-15 08:53:01 22.2 28 23.6
003C3CC8 2019-02-15 08:21:46 22.2 28 23.7
003C3CC8 2019-02-15 07:50:30 22.2 28 23.9
003C3CC8 2019-02-15 07:19:14 22.2 28 23.9
003C3CC8 2019-02-15 06:47:59 22.2 28 23.8
003C3CC8 2019-02-15 06:16:43 22.2 29 23.8
003C3CC8 2019-02-15 05:45:28 22.2 29 23.7
003C3CC8 2019-02-15 05:14:13 22.2 29 23.5
003C3CC8 2019-02-15 04:42:58 22.2 29 23.3
003C3CC8 2019-02-15 04:11:42 22.3 29 23.3
003C3CC8 2019-02-15 03:40:26 22.3 29 23.2
003C3CC8 2019-02-15 03:09:11 22.3 29 23.1
003C3CC8 2019-02-15 02:37:55 22.2 30 22.9
003C3CC8 2019-02-15 02:06:39 22.2 30 22.7
003C3CC8 2019-02-15 01:35:23 22.1 30 22.6
003C3CC8 2019-02-15 01:04:07 22.1 30 22.3
003C3CC8 2019-02-15 00:32:52 21.9 30 22.3
003C3CC8 2019-02-15 00:01:36 21.8 30 22.2
003C3CC8 2019-02-14 23:30:21 21.7 30 22.1
003C3CC8 2019-02-14 22:59:05 21.5 30 22
003C3CC8 2019-02-14 22:27:50 21.3 30 22.8
003C3CC8 2019-02-14 21:56:34 21 30 22.6
003C3CC8 2019-02-14 21:25:19 20.9 30 22.4
003C3CC8 2019-02-14 21:24:06 20.7 31 22.4
003C3CC8 2019-02-14 20:52:51 20.3 31 22.1
003C3CC8 2019-02-14 20:21:35 19.7 31 22
003C3CC8 2019-02-14 19:50:20 19 31 21.7
003C3CC8 2019-02-14 19:19:07 18 29 21.5
003C3CC8 2019-02-14 17:45:22 21.8 25 21.7
003C3CC8 2019-02-14 17:14:07 22 25 21.8
003C3CC8 2019-02-14 16:42:52 22 25 21.9
003C3CC8 2019-02-14 16:11:36 21.8 24 22
003C3CC8 2019-02-14 15:40:22 21.8 24 22.3
003C3CC8 2019-02-14 15:09:06 21.7 24 22.3
003C3CC8 2019-02-14 14:37:50 21.6 24 22.4
003C3CC8 2019-02-14 14:06:35 21.6 24 22.5
003C3CC8 2019-02-14 13:35:19 21.5 24 22.5
003C3CC8 2019-02-14 13:04:04 21.4 24 22.7
003C3CC8 2019-02-14 12:32:48 21.3 23 23.6
003C3CC8 2019-02-14 12:01:34 21.3 24 23.7
003C3CC8 2019-02-14 11:30:17 21.2 24 23.7
003C3CC8 2019-02-14 10:59:01 21.1 24 23.7
003C3CC8 2019-02-14 10:27:46 21 24 23.7
003C3CC8 2019-02-14 09:56:30 20.9 24 23.6
003C3CC8 2019-02-14 09:25:15 20.9 24 23.6
003C3CC8 2019-02-14 08:54:00 20.8 24 22.9
003C3CC8 2019-02-14 08:22:44 20.8 24 22.8
003C3CC8 2019-02-14 07:51:29 20.8 24 22.9
003C3CC8 2019-02-14 07:20:14 20.8 25 22.9
003C3CC8 2019-02-14 06:48:59 20.8 25 23.1
003C3CC8 2019-02-14 06:17:45 20.8 25 22.9
003C3CC8 2019-02-14 05:46:30 20.8 25 23
003C3CC8 2019-02-14 05:15:15 20.8 25 22.8
003C3CC8 2019-02-14 04:44:01 20.8 25 22.7
003C3CC8 2019-02-14 04:12:46 20.9 25 22.6
003C3CC8 2019-02-14 03:41:31 20.8 25 22.3
003C3CC8 2019-02-14 03:10:15 20.8 25 22.2
003C3CC8 2019-02-14 02:39:00 20.9 25 22.1
003C3CC8 2019-02-14 02:07:45 20.8 25 22
003C3CC8 2019-02-14 01:36:30 20.8 25 21.9
003C3CC8 2019-02-14 01:05:14 20.9 25 21.7
003C3CC8 2019-02-14 00:33:59 20.9 25 22.7
003C3CC8 2019-02-14 00:02:43 20.9 25 22.4
003C3CC8 2019-02-13 23:31:27 20.9 25 21.5
003C3CC8 2019-02-13 23:00:11 20.9 25 21.3
003C3CC8 2019-02-13 22:28:54 21 25 21.3
003C3CC8 2019-02-13 21:57:39 21 25 21.1
003C3CC8 2019-02-13 21:26:23 21.1 25 21.1
003C3CC8 2019-02-13 20:55:08 21.1 25 21
003C3CC8 2019-02-13 20:23:53 21.2 25 20.9
003C3CC8 2019-02-13 19:52:37 21.5 25 20.8
003C3CC8 2019-02-13 19:51:24 21.2 25 20.8
003C3CC8 2019-02-13 19:20:08 21.3 25 20.7
003C3CC8 2019-02-13 18:48:52 21.4 25 20.6
003C3CC8 2019-02-13 18:17:36 21.5 26 20.2
003C3CC8 2019-02-13 17:46:19 21.4 26 20.3
003C3CC8 2019-02-13 17:15:04 21.4 26 20.1
003C3CC8 2019-02-13 16:43:48 21.3 27 20.2
003C3CC8 2019-02-13 16:12:33 21.3 26 20.3
003C3CC8 2019-02-13 15:41:17 21.2 26 20.3
003C3CC8 2019-02-13 15:10:02 21.1 25 20.5
003C3CC8 2019-02-13 14:38:46 21.1 25 20.6
003C3CC8 2019-02-13 14:07:31 21.1 24 20.7
003C3CC8 2019-02-13 13:36:16 21.1 24 20.8
003C3CC8 2019-02-13 13:05:00 21.2 25 20.9
003C3CC8 2019-02-13 12:33:44 21.1 25 21.1
003C3CC8 2019-02-13 12:02:29 21.1 25 19.6
003C3CC8 2019-02-13 11:31:13 21 25 19.5
003C3CC8 2019-02-13 10:59:58 20.9 24 19.5
003C3CC8 2019-02-13 10:28:42 20.9 24 19.6
003C3CC8 2019-02-13 09:57:27 20.9 23 19.4
003C3CC8 2019-02-13 09:26:12 20.8 22 19.5
003C3CC8 2019-02-13 08:54:53 20.8 22 19.3
003C3CC8 2019-02-13 08:23:38 20.8 21 19.6
003C3CC8 2019-02-13 07:52:23 20.7 20 19.6
003C3CC8 2019-02-13 07:21:06 20.8 19 19.7
003C3CC8 2019-02-13 06:49:49 20.8 19 19.7
003C3CC8 2019-02-13 06:18:33 20.8 19 19.6
003C3CC8 2019-02-13 05:47:17 20.8 19 19.4
003C3CC8 2019-02-13 05:16:01 20.8 19 19.5
003C3CC8 2019-02-13 04:44:46 20.8 19 19.4
003C3CC8 2019-02-13 04:13:30 20.8 19 19.3
003C3CC8 2019-02-13 03:42:17 20.8 19 19.1
003C3CC8 2019-02-13 03:11:00 20.8 19 18.9
003C3CC8 2019-02-13 02:39:46 20.8 18 18.9
003C3CC8 2019-02-13 02:08:30 20.8 18 18.5
003C3CC8 2019-02-13 01:37:15 20.8 18 18.4
003C3CC8 2019-02-13 01:06:00 20.9 18 18.1
003C3CC8 2019-02-13 00:34:45 20.9 19 17.9
003C3CC8 2019-02-13 00:03:30 20.9 19 17.7
003C3CC8 2019-02-12 23:32:14 20.9 19 17.4
003C3CC8 2019-02-12 23:01:00 20.9 19 17.3
003C3CC8 2019-02-12 22:29:44 21 19 17.4
003C3CC8 2019-02-12 21:58:28 21.1 19 17.2
003C3CC8 2019-02-12 21:27:12 21.2 20 17.1
003C3CC8 2019-02-12 20:55:59 21.2 21 17.4
003C3CC8 2019-02-12 20:24:40 21.3 20 17.2
003C3CC8 2019-02-12 19:53:25 21.4 20 17.2
003C3CC8 2019-02-12 19:22:12 21.5 20 16.9
003C3CC8 2019-02-12 18:50:53 21.5 19 16.8
003C3CC8 2019-02-12 18:19:37 21.7 19 16.4
003C3CC8 2019-02-12 18:18:24 21.5 19 16.2
003C3CC8 2019-02-12 17:47:08 21.6 19 16.2
003C3CC8 2019-02-12 17:15:52 21.6 19 16.3
003C3CC8 2019-02-12 16:44:37 21.8 19 16
003C3CC8 2019-02-12 16:13:22 21.9 19 16
003C3CC8 2019-02-12 15:42:06 21.8 19 16
003C3CC8 2019-02-12 15:10:51 21.8 19 16.4
003C3CC8 2019-02-12 14:39:36 21.6 19 16.3
003C3CC8 2019-02-12 14:08:20 21.3 19 16.3
003C3CC8 2019-02-12 13:37:05 21.3 19 16.4
003C3CC8 2019-02-12 13:05:48 21.3 19 16.3
003C3CC8 2019-02-12 12:34:32 21.3 20 16.1
003C3CC8 2019-02-12 12:03:17 21.3 20 16.2
003C3CC8 2019-02-12 11:31:59 21.2 20 16.1
003C3CC8 2019-02-12 11:00:43 21.2 21 16.2
003C3CC8 2019-02-12 10:29:26 21.2 22 16.2
003C3CC8 2019-02-12 09:58:09 21 21 16.1
003C3CC8 2019-02-12 09:26:52 21 22 16.2
003C3CC8 2019-02-12 08:55:35 20.9 23 16
003C3CC8 2019-02-12 08:24:16 20.8 23 15.7
003C3CC8 2019-02-12 07:53:00 20.8 24 15.7
003C3CC8 2019-02-12 07:21:42 20.8 25 15.7
003C3CC8 2019-02-12 06:50:25 20.8 26 15.6
003C3CC8 2019-02-12 06:19:08 20.8 26 15.5
003C3CC8 2019-02-12 05:47:52 20.8 26 16
003C3CC8 2019-02-12 05:16:35 20.8 26 16
003C3CC8 2019-02-12 04:45:20 20.9 26 16.1
003C3CC8 2019-02-12 04:14:01 20.8 26 16
003C3CC8 2019-02-12 03:42:44 20.9 26 16
003C3CC8 2019-02-12 03:11:29 20.9 26 16.2
003C3CC8 2019-02-12 02:40:12 20.9 27 16.2
003C3CC8 2019-02-12 02:08:55 20.9 27 15.8
003C3CC8 2019-02-12 01:37:38 20.9 27 16
003C3CC8 2019-02-12 01:06:22 20.9 27 16.1
003C3CC8 2019-02-12 00:35:04 20.9 27 16.1
003C3CC8 2019-02-12 00:03:47 21 27 16.1
003C3CC8 2019-02-11 23:32:29 21 27 16.2
003C3CC8 2019-02-11 23:01:12 21 27 16.3
003C3CC8 2019-02-11 22:29:56 21.1 27 16.5
003C3CC8 2019-02-11 21:58:40 21.1 27 16.3
003C3CC8 2019-02-11 21:27:23 21.2 27 16.4
003C3CC8 2019-02-11 20:56:08 21.3 27 16.6
003C3CC8 2019-02-11 20:24:53 21.3 27 16.7
003C3CC8 2019-02-11 19:53:36 21.4 27 17.2
003C3CC8 2019-02-11 19:22:20 21.5 27 17.3
003C3CC8 2019-02-11 18:51:04 21.6 27 17.7
003C3CC8 2019-02-11 18:19:46 21.8 27 18.4
003C3CC8 2019-02-11 17:48:30 22 27 19.1
003C3CC8 2019-02-11 17:17:14 22.2 27 21.8
003C3CC8 2019-02-11 16:45:57 22.2 31 0